DateTimeUTC,F1_A11,F1_S11,BsB_S11,BsG_S11,BsR_S11,BbsB_S11,BbsG_S11,BbsR_S11,BaB_A11,BaG_A11,BaR_A11,Tu_S11,T_S11,Uu_S11,U_S11,P_S11,T1_A11
2021-10-05T14:00:00Z,00000200,21000000,,,,,,,0000.42,0000.35,-000.04,16.8,23.7,00.8,00.5,0668.1,30.9
2021-10-05T14:01:00Z,00000200,21000000,,,,,,,0000.26,0000.76,0000.72,16.8,23.7,00.9,00.6,0668.1,30.9
2021-10-05T14:02:00Z,00000200,21000000,,,,,,,0000.16,-000.06,0000.17,16.8,23.7,00.9,00.6,0668.1,30.9
2021-10-05T14:03:00Z,00000200,61000000,,,,,,,0000.23,0000.57,0000.41,16.8,23.7,00.9,00.6,0668.1,30.9
2021-10-05T14:04:00Z,00000200,41000000,-000.54,-000.09,0000.17,0000.09,-000.06,0000.08,0000.02,-000.26,-000.38,17.3,23.7,01.3,00.9,0669.1,30.9
2021-10-05T14:05:00Z,00000200,01000000,0000.49,-000.12,-000.22,0000.22,-000.04,-000.10,-000.11,-000.19,0000.04,17.4,23.7,01.4,00.9,0669.2,30.9
2021-10-05T14:06:00Z,00000200,01000000,-000.59,-000.15,0000.08,0000.84,0000.26,-000.18,0000.19,0000.02,0000.08,17.4,23.7,01.4,01.0,0669.2,30.9
2021-10-05T14:07:00Z,00000200,01000000,0000.96,-000.07,0000.21,-000.06,0000.19,-000.21,-000.20,-000.31,-000.01,17.4,23.7,01.4,00.9,0669.2,30.9
2021-10-05T14:08:00Z,00000200,01000000,0000.40,0000.27,-000.09,0000.01,-000.23,-000.18,0000.14,0000.20,-000.01,17.4,23.7,01.4,01.0,0669.2,30.9
2021-10-05T14:09:00Z,00000200,01000000,-000.09,-000.25,0000.02,0000.18,-000.42,-000.19,0000.28,0000.38,-000.09,17.3,23.7,01.4,01.0,0669.2,30.9
2021-10-05T14:10:00Z,00000200,01000000,-000.38,0000.11,0000.05,-000.08,0000.04,-000.14,0000.17,0000.05,0000.34,17.3,23.6,01.4,00.9,0669.3,30.9
2021-10-05T14:11:00Z,00000200,01000000,-000.20,0000.11,0000.06,0000.42,-000.11,-000.03,0000.09,-000.24,-000.23,17.2,23.6,01.5,01.0,0669.3,30.9
2021-10-05T14:12:00Z,00000200,01000000,0000.87,-000.17,0000.26,-000.03,-000.21,0000.17,0000.49,0000.89,0000.71,17.2,23.6,01.5,01.0,0669.3,30.9
2021-10-05T14:13:00Z,00000200,01000000,0000.29,0000.21,0000.34,-000.35,0000.07,-000.15,0000.04,-000.21,0000.02,17.2,23.6,01.6,01.1,0669.3,30.9
2021-10-05T14:14:00Z,00000200,01000000,-000.35,0000.16,-000.15,0000.85,-000.03,0000.09,-000.02,0000.14,0000.01,17.2,23.5,01.6,01.1,0669.3,30.9
2021-10-05T14:15:00Z,00000200,01000000,0000.16,-000.03,0000.06,-000.68,-000.12,0000.35,0000.47,0000.38,0000.52,17.2,23.5,01.5,01.0,0669.3,30.8
2021-10-05T14:16:00Z,00000200,01000000,0000.27,0000.01,-000.04,0000.25,-000.21,-000.17,0000.15,0000.44,0000.18,17.2,23.5,01.5,01.0,0669.3,30.9
2021-10-05T14:17:00Z,00000200,01000000,0000.09,0000.42,0000.01,0000.13,-000.18,-000.15,0000.23,0000.06,-000.07,17.3,23.6,01.5,01.0,0669.3,30.9
2021-10-05T14:18:00Z,00000200,01000000,-000.25,-000.18,0000.38,0000.03,-000.08,0000.22,-000.18,-000.32,0000.10,17.4,23.6,01.5,01.0,0669.4,30.9
2021-10-05T14:19:00Z,00000200,01000000,-000.51,-000.14,-000.08,-000.05,0000.02,-000.20,0000.03,0000.18,0000.14,17.5,23.7,01.5,01.0,0669.4,30.9
2021-10-05T14:20:00Z,00000200,01000000,0000.22,-000.20,-000.12,0000.09,0000.12,0000.04,-000.40,-000.05,-000.24,17.5,23.7,01.3,00.9,0669.4,30.9
2021-10-05T14:21:00Z,00000200,01000000,-000.18,-000.15,-000.10,0000.41,0000.06,-000.06,0000.01,-000.37,-000.34,17.5,23.7,01.3,00.9,0669.4,30.9
2021-10-05T14:22:00Z,00000200,01000000,0000.20,-000.09,0000.20,0000.06,-000.03,0000.09,0000.51,0000.51,0000.26,17.5,23.7,01.4,01.0,0669.4,30.9
2021-10-05T14:23:00Z,00000200,01000000,-000.72,0000.13,-000.05,0000.13,-000.09,-000.19,-000.26,-000.21,0000.03,17.5,23.7,01.4,01.0,0669.4,30.9
2021-10-05T14:24:00Z,00000200,01000000,-000.44,-000.01,0000.10,0000.15,0000.03,0000.08,0000.07,0000.20,0000.12,17.4,23.7,01.5,01.0,0669.4,30.9
2021-10-05T14:25:00Z,00000200,01000000,-000.08,-000.16,0000.09,-000.15,0000.01,-000.01,0000.17,-000.06,0000.10,17.4,23.7,01.6,01.1,0669.4,30.9
2021-10-05T14:26:00Z,00000200,01000000,-000.01,0000.08,0000.11,0000.06,-000.34,0000.17,0000.11,0000.18,-000.09,17.3,23.7,01.6,01.1,0669.4,30.9
2021-10-05T14:27:00Z,00000200,01000000,0000.54,0000.10,-000.21,0000.25,-000.02,-000.08,0000.10,0000.13,0000.53,17.3,23.6,01.6,01.1,0669.5,30.9
2021-10-05T14:28:00Z,00000200,01000000,-000.34,-000.10,-000.32,-000.43,0000.07,0000.09,0000.49,0000.53,0000.14,17.2,23.6,01.5,01.0,0669.5,30.9
2021-10-05T14:29:00Z,00000200,01000000,0001.11,-000.09,-000.07,0000.05,-000.23,-000.03,0000.44,0000.47,0000.57,17.2,23.6,01.7,01.1,0669.5,30.8
2021-10-05T14:30:00Z,00000200,01000000,0000.22,-000.19,-000.11,0000.40,0000.02,0000.31,0000.35,0000.26,0000.11,17.2,23.6,01.7,01.2,0669.5,30.9
2021-10-05T14:31:00Z,00000200,01000000,0000.29,-000.06,0000.12,-000.31,-000.08,-000.16,0000.26,0000.42,0000.48,17.3,23.6,01.7,01.2,0669.5,30.9
2021-10-05T14:32:00Z,00000200,01000000,-000.42,0000.08,0000.18,0000.32,0000.17,0000.04,0000.11,0000.10,0000.10,17.4,23.6,01.8,01.2,0669.6,30.9
2021-10-05T14:33:00Z,00000200,01000000,-000.34,0000.05,-000.07,0000.28,0000.06,-000.19,0000.26,0000.12,-000.07,17.5,23.7,01.8,01.2,0669.6,30.9
2021-10-05T14:34:00Z,00000200,01000000,-000.18,0000.15,0000.03,0000.03,0000.08,-000.30,-000.25,0000.07,0000.32,17.5,23.7,01.8,01.2,0669.6,30.9
2021-10-05T14:35:00Z,00000200,01000000,0000.61,0000.42,-000.20,0000.05,0000.18,-000.16,0000.25,-000.13,-000.38,17.5,23.7,01.9,01.3,0669.6,30.9
2021-10-05T14:36:00Z,00000200,00000000,0000.19,-000.01,0000.33,-000.13,0000.18,0000.10,0000.63,0000.55,0000.76,17.5,23.7,01.9,01.3,0669.6,30.9
2021-10-05T14:37:00Z,00000200,00000000,0000.20,0000.03,0000.42,-000.03,-000.39,-000.01,0000.35,0000.32,0000.08,17.5,23.7,02.0,01.4,0669.5,30.9
2021-10-05T14:38:00Z,00000200,01000000,-000.35,-000.25,0000.33,-000.00,0000.57,0000.19,-000.10,0000.43,0000.08,17.5,23.7,02.0,01.3,0669.6,30.9
2021-10-05T14:39:00Z,00000200,00000000,-000.89,-000.17,0000.02,0000.23,0000.11,0000.18,0000.03,-000.48,-000.03,17.4,23.7,02.0,01.4,0669.6,30.9
2021-10-05T14:40:00Z,00000200,00000000,0000.16,-000.28,0000.01,0000.28,0000.10,0000.14,0000.02,0000.36,0000.03,17.4,23.7,02.1,01.4,0669.6,30.9
2021-10-05T14:41:00Z,00000200,01000000,-000.99,-000.06,-000.05,0000.02,-000.11,0000.08,0000.14,0000.08,0000.13,17.3,23.7,02.0,01.4,0669.6,30.9
2021-10-05T14:42:00Z,00000200,00000000,0000.14,-000.17,-000.26,-000.29,0000.10,-000.19,-000.17,-000.07,0000.34,17.3,23.6,01.9,01.3,0669.6,30.9
2021-10-05T14:43:00Z,00000200,00000000,0000.17,-000.13,0000.18,0000.10,-000.15,0000.10,-000.19,-000.61,-000.90,17.3,23.6,01.8,01.2,0669.7,30.9
2021-10-05T14:44:00Z,00000200,01000000,0000.57,-000.15,-000.09,-000.18,0000.10,-000.20,0000.02,0000.33,0000.54,17.3,23.6,01.7,01.2,0669.7,30.8
2021-10-05T14:45:00Z,00000200,01000000,0000.20,-000.24,0000.01,-000.37,-000.04,0000.18,-000.05,-000.10,-000.25,17.3,23.6,01.6,01.1,0669.7,30.9
2021-10-05T14:46:00Z,00000200,01000000,-000.75,-000.29,0000.17,-000.09,0000.00,0000.09,0000.03,-000.25,0000.61,17.3,23.6,01.5,01.0,0669.7,30.9
2021-10-05T14:47:00Z,00000200,01000000,-000.10,0000.48,0000.07,-000.00,0000.03,-000.05,-000.14,0000.36,-000.20,17.4,23.7,01.4,00.9,0669.8,30.9
2021-10-05T14:48:00Z,00000200,01000000,0000.58,-000.17,0000.21,0000.02,-000.20,0000.15,-000.47,-000.54,-000.38,17.5,23.7,01.2,00.8,0669.8,30.9
2021-10-05T14:49:00Z,00000200,01000000,-000.30,0000.37,-000.06,0000.10,-000.19,-000.18,-000.03,-000.15,-000.17,17.6,23.8,01.2,00.8,0669.8,30.9
2021-10-05T14:50:00Z,00000200,01000000,-000.14,0000.21,-000.19,-000.05,0000.17,-000.25,-000.74,-000.60,-000.67,17.6,23.8,01.0,00.7,0669.8,30.9
2021-10-05T14:51:00Z,00000200,01000000,0000.48,0000.11,0000.01,-000.07,-000.13,-000.07,-000.15,-000.26,0000.18,17.6,23.8,00.8,00.5,0669.9,30.9
2021-10-05T14:52:00Z,00000200,01000000,-000.09,-000.22,0000.06,0000.12,0000.29,-000.06,0000.27,0000.20,-000.08,17.6,23.8,00.8,00.5,0669.9,30.9
2021-10-05T14:53:00Z,00000200,01000000,-000.00,-000.13,-000.02,0000.05,-000.29,-000.22,0000.07,0000.18,0000.13,17.5,23.7,00.8,00.5,0669.9,30.9
2021-10-05T14:54:00Z,00000200,01000000,-000.03,-000.11,-000.07,-000.08,0000.32,0000.21,0000.31,0000.35,0000.22,17.5,23.7,01.0,00.7,0669.9,30.9
2021-10-05T14:55:00Z,00000200,01000000,0000.75,-000.33,0000.24,-000.41,0000.06,0000.03,0000.45,0000.38,0000.63,17.5,23.7,01.1,00.8,0669.9,30.9
2021-10-05T14:56:00Z,00000200,01000000,-000.08,-000.13,-000.32,0000.43,-000.18,0000.11,0000.27,0000.39,-000.05,17.4,23.7,01.3,00.9,0669.9,30.9
2021-10-05T14:57:00Z,00000200,40000000,,,,,,,-000.17,-000.09,0000.01,17.4,23.7,01.5,01.0,0669.8,30.9
2021-10-05T14:58:00Z,00000200,61000000,,,,,,,0000.21,0000.03,0000.36,17.1,23.8,01.2,00.8,0669.0,30.9
2021-10-05T14:59:00Z,00000200,21000000,,,,,,,0000.44,0000.64,-000.06,17.1,23.9,01.2,00.8,0669.0,30.9
